| time (UTC) | temp F | wind direction | speed MPH | gust MPH | rain 1hr in | rain 24hr in | rain mn in | humidity % | barometer mb |
| 20260902053041 | 76 | 0 | 0.0 | 0.0 | 0.00 | 0.07 | 0.00 | 86 | 1014.2 |
| 20260902051547 | 76 | 0 | 0.0 | 0.0 | 0.00 | 0.07 | 0.00 | 86 | 1014.0 |
| 20260902050042 | 77 | 0 | 0.0 | 0.0 | 0.00 | 0.07 | 0.00 | 86 | 1013.8 |
| 20260902044540 | 77 | 0 | 0.0 | 0.0 | 0.00 | 0.07 | 0.07 | 86 | 1014.1 |
| 20260902043057 | 77 | 0 | 0.0 | 0.0 | 0.00 | 0.07 | 0.07 | 87 | 1013.9 |
| 20260902041546 | 77 | 0 | 0.0 | 0.0 | 0.00 | 0.07 | 0.07 | 86 | 1014.0 |
| 20260902040044 | 77 | 215 | 0.0 | 1.0 | 0.00 | 0.07 | 0.07 | 86 | 1013.9 |
| 20260902034542 | 77 | 0 | 0.0 | 0.0 | 0.00 | 0.07 | 0.07 | 86 | 1013.6 |
| 20260902033057 | 77 | 0 | 0.0 | 1.0 | 0.00 | 0.07 | 0.07 | 86 | 1013.7 |
| 20260902031545 | 77 | 0 | 0.0 | 0.0 | 0.00 | 0.07 | 0.07 | 86 | 1014.0 |
| 20260902030042 | 77 | 0 | 0.0 | 0.0 | 0.00 | 0.07 | 0.07 | 86 | 1014.0 |
| 20260902024542 | 77 | 0 | 0.0 | 1.0 | 0.00 | 0.07 | 0.07 | 86 | 1014.1 |
| 20260902023049 | 77 | 0 | 0.0 | 0.0 | 0.00 | 0.07 | 0.07 | 87 | 1014.3 |
| 20260902021543 | 77 | 0 | 0.0 | 0.0 | 0.00 | 0.07 | 0.07 | 87 | 1014.4 |
| 20260902020042 | 78 | 0 | 0.0 | 0.0 | 0.00 | 0.07 | 0.07 | 87 | 1014.3 |
| 20260902014540 | 78 | 0 | 0.0 | 0.0 | 0.00 | 0.07 | 0.07 | 87 | 1014.3 |
| 20260902013044 | 78 | 0 | 0.0 | 0.0 | 0.00 | 0.07 | 0.07 | 87 | 1014.0 |
| 20260902011542 | 78 | 0 | 0.0 | 0.0 | 0.00 | 0.07 | 0.07 | 87 | 1014.0 |
| 20260902010046 | 78 | 0 | 0.0 | 0.0 | 0.00 | 0.07 | 0.07 | 87 | 1013.9 |
| 20260902004549 | 78 | 0 | 0.0 | 0.0 | 0.00 | 0.07 | 0.07 | 87 | 1013.7 |
| 20260902003048 | 79 | 0 | 0.0 | 0.0 | 0.00 | 0.07 | 0.07 | 86 | 1013.6 |
| 20260902001540 | 79 | 0 | 0.0 | 0.0 | 0.00 | 0.07 | 0.07 | 86 | 1013.7 |
| 20260902000051 | 79 | 0 | 0.0 | 1.0 | 0.00 | 0.07 | 0.07 | 86 | 1013.7 |
| 20260901234549 | 79 | 0 | 0.0 | 1.0 | 0.00 | 0.07 | 0.07 | 86 | 1013.6 |
| 20260901233046 | 79 | 0 | 0.0 | 0.0 | 0.00 | 0.07 | 0.07 | 85 | 1013.5 |
| 20260901231545 | 79 | 0 | 0.0 | 1.0 | 0.00 | 0.07 | 0.07 | 85 | 1013.0 |
| 20260901230046 | 79 | 0 | 0.0 | 1.0 | 0.01 | 0.07 | 0.07 | 84 | 1013.3 |
| 20260901224542 | 79 | 230 | 0.0 | 3.0 | 0.01 | 0.07 | 0.07 | 82 | 1013.7 |
| 20260901223043 | 79 | 250 | 1.0 | 4.0 | 0.01 | 0.07 | 0.07 | 81 | 1014.1 |
| 20260901221608 | 78 | 0 | 0.0 | 3.0 | 0.05 | 0.07 | 0.07 | 84 | 1013.9 |
| 20260901220056 | 78 | 283 | 0.0 | 5.0 | 0.04 | 0.06 | 0.06 | 83 | 1013.8 |
| 20260901214546 | 78 | 253 | 1.0 | 6.0 | 0.04 | 0.06 | 0.06 | 82 | 1013.9 |
| 20260901213103 | 78 | 251 | 0.0 | 6.0 | 0.04 | 0.06 | 0.06 | 82 | 1014.0 |
| 20260901211545 | 79 | 0 | 2.0 | 9.0 | 0.00 | 0.02 | 0.02 | 80 | 1014.0 |
| 20260901210041 | 80 | 259 | 3.0 | 10.0 | 0.02 | 0.02 | 0.02 | 82 | 1014.1 |
| 20260901204545 | 80 | 264 | 3.0 | 9.0 | 0.02 | 0.02 | 0.02 | 84 | 1013.9 |
| 20260901203055 | 81 | 264 | 1.0 | 5.0 | 0.02 | 0.02 | 0.02 | 84 | 1014.1 |
| 20260901201540 | 82 | 221 | 1.0 | 9.0 | 0.02 | 0.02 | 0.02 | 80 | 1014.3 |
| 20260901200050 | 84 | 267 | 5.0 | 12.0 | 0.00 | 0.00 | 0.00 | 76 | 1014.5 |
| 20260901194545 | 85 | 256 | 3.0 | 7.0 | 0.00 | 0.00 | 0.00 | 74 | 1013.9 |
| 20260901193057 | 86 | 224 | 3.0 | 11.0 | 0.00 | 0.00 | 0.00 | 72 | 1014.5 |
| 20260901191542 | 86 | 261 | 5.0 | 11.0 | 0.00 | 0.00 | 0.00 | 69 | 1014.6 |
| 20260901190041 | 86 | 258 | 7.0 | 12.0 | 0.00 | 0.00 | 0.00 | 69 | 1014.3 |
| 20260901184545 | 87 | 238 | 6.0 | 11.0 | 0.00 | 0.00 | 0.00 | 71 | 1014.3 |
| 20260901183042 | 87 | 239 | 5.0 | 11.0 | 0.00 | 0.00 | 0.00 | 71 | 1014.4 |
| 20260901181543 | 87 | 222 | 3.0 | 9.0 | 0.00 | 0.00 | 0.00 | 73 | 1014.2 |
| 20260901180044 | 86 | 240 | 4.0 | 9.0 | 0.00 | 0.00 | 0.00 | 73 | 1014.3 |
| 20260901174547 | 86 | 280 | 3.0 | 9.0 | 0.00 | 0.00 | 0.00 | 75 | 1014.3 |
| 20260901173046 | 85 | 205 | 4.0 | 10.0 | 0.00 | 0.00 | 0.00 | 78 | 1014.6 |
| 20260901171546 | 86 | 252 | 2.0 | 7.0 | 0.00 | 0.00 | 0.00 | 78 | 1014.7 |
| 20260901170047 | 85 | 242 | 1.0 | 8.0 | 0.00 | 0.00 | 0.00 | 79 | 1014.7 |
| 20260901164547 | 85 | 201 | 1.0 | 5.0 | 0.00 | 0.00 | 0.00 | 80 | 1014.8 |
| 20260901163043 | 84 | 248 | 1.0 | 4.0 | 0.00 | 0.00 | 0.00 | 80 | 1014.6 |
| 20260901161544 | 84 | 162 | 1.0 | 5.0 | 0.00 | 0.00 | 0.00 | 80 | 1014.9 |
| 20260901160046 | 84 | 226 | 1.0 | 4.0 | 0.00 | 0.00 | 0.00 | 79 | 1015.2 |
| 20260901154548 | 84 | 210 | 0.0 | 3.0 | 0.00 | 0.00 | 0.00 | 80 | 1015.0 |
| 20260901153055 | 84 | 254 | 0.0 | 2.0 | 0.00 | 0.00 | 0.00 | 79 | 1015.0 |
| 20260901151544 | 83 | 257 | 0.0 | 4.0 | 0.00 | 0.00 | 0.00 | 79 | 1014.8 |
| 20260901150050 | 82 | 247 | 2.0 | 4.0 | 0.00 | 0.00 | 0.00 | 81 | 1014.9 |
| 20260901144548 | 82 | 225 | 0.0 | 3.0 | 0.00 | 0.00 | 0.00 | 82 | 1015.0 |
| 20260901143053 | 81 | 266 | 1.0 | 4.0 | 0.00 | 0.00 | 0.00 | 83 | 1015.0 |
| 20260901141553 | 80 | 320 | 3.0 | 6.0 | 0.00 | 0.00 | 0.00 | 84 | 1015.1 |
| 20260901140045 | 79 | 247 | 3.0 | 5.0 | 0.00 | 0.00 | 0.00 | 84 | 1015.1 |
| 20260901134544 | 77 | 202 | 0.0 | 2.0 | 0.00 | 0.00 | 0.00 | 86 | 1015.0 |
| 20260901133043 | 77 | 213 | 0.0 | 5.0 | 0.00 | 0.00 | 0.00 | 86 | 1015.0 |
| 20260901131550 | 76 | 0 | 0.0 | 4.0 | 0.00 | 0.00 | 0.00 | 86 | 1014.9 |
| 20260901130045 | 75 | 0 | 0.0 | 1.0 | 0.00 | 0.00 | 0.00 | 87 | 1015.1 |
| 20260901124550 | 74 | 0 | 0.0 | 1.0 | 0.00 | 0.00 | 0.00 | 87 | 1015.0 |
| 20260901123050 | 74 | 0 | 0.0 | 1.0 | 0.00 | 0.00 | 0.00 | 86 | 1014.9 |
| 20260901121549 | 73 | 0 | 0.0 | 0.0 | 0.00 | 0.00 | 0.00 | 86 | 1014.9 |
| 20260901120047 | 73 | 0 | 0.0 | 1.0 | 0.00 | 0.00 | 0.00 | 86 | 1014.7 |
| 20260901114544 | 72 | 0 | 0.0 | 0.0 | 0.00 | 0.01 | 0.00 | 87 | 1014.4 |
| 20260901113043 | 72 | 0 | 0.0 | 0.0 | 0.00 | 0.01 | 0.00 | 87 | 1014.1 |
| 20260901111539 | 72 | 0 | 0.0 | 0.0 | 0.00 | 0.01 | 0.00 | 87 | 1013.9 |
| 20260901110045 | 73 | 0 | 0.0 | 0.0 | 0.00 | 0.01 | 0.00 | 87 | 1013.8 |
| 20260901104544 | 73 | 0 | 0.0 | 0.0 | 0.00 | 0.15 | 0.00 | 87 | 1013.8 |
| 20260901103048 | 74 | 0 | 0.0 | 2.0 | 0.00 | 0.15 | 0.00 | 87 | 1013.7 |
| 20260901101541 | 74 | 0 | 0.0 | 0.0 | 0.00 | 0.15 | 0.00 | 87 | 1013.7 |
| 20260901100043 | 74 | 0 | 0.0 | 0.0 | 0.00 | 0.15 | 0.00 | 87 | 1013.8 |
| 20260901094549 | 75 | 0 | 0.0 | 0.0 | 0.00 | 0.16 | 0.00 | 86 | 1013.6 |
| 20260901093046 | 76 | 0 | 0.0 | 4.0 | 0.00 | 0.16 | 0.00 | 86 | 1013.7 |
| 20260901091543 | 76 | 233 | 1.0 | 4.0 | 0.00 | 0.16 | 0.00 | 86 | 1013.6 |
| 20260901090055 | 76 | 221 | 1.0 | 4.0 | 0.00 | 0.16 | 0.00 | 86 | 1013.6 |
| 20260901084547 | 75 | 224 | 3.0 | 5.0 | 0.00 | 0.16 | 0.00 | 86 | 1013.6 |
| 20260901083046 | 75 | 238 | 2.0 | 3.0 | 0.00 | 0.16 | 0.00 | 87 | 1013.5 |
| 20260901081546 | 75 | 251 | 1.0 | 4.0 | 0.00 | 0.16 | 0.00 | 87 | 1013.4 |
| 20260901080041 | 75 | 253 | 1.0 | 3.0 | 0.00 | 0.16 | 0.00 | 87 | 1013.5 |
| 20260901074547 | 75 | 255 | 1.0 | 2.0 | 0.00 | 0.16 | 0.00 | 87 | 1013.6 |
| 20260901073046 | 75 | 0 | 0.0 | 3.0 | 0.00 | 0.16 | 0.00 | 87 | 1013.5 |
| 20260901071553 | 75 | 0 | 0.0 | 4.0 | 0.00 | 0.16 | 0.00 | 87 | 1013.5 |
| 20260901070044 | 75 | 252 | 1.0 | 4.0 | 0.00 | 0.16 | 0.00 | 86 | 1013.7 |
| 20260901064543 | 76 | 267 | 2.0 | 5.0 | 0.00 | 0.16 | 0.00 | 86 | 1013.7 |
| 20260901063041 | 76 | 228 | 2.0 | 5.0 | 0.00 | 0.16 | 0.00 | 86 | 1013.7 |
| 20260901061546 | 76 | 228 | 1.0 | 4.0 | 0.00 | 0.16 | 0.00 | 86 | 1013.6 |
| 20260901060047 | 76 | 248 | 1.0 | 3.0 | 0.00 | 0.16 | 0.00 | 86 | 1013.5 |
| 20260901054543 | 76 | 237 | 3.0 | 6.0 | 0.00 | 0.16 | 0.00 | 85 | 1013.6 |